Flag for Jordan Weather past 2 weeks in Zarqa, Jordan

Now
77 °F

Haze.


Feels Like: 79 °F
Forecast: 64 / 96 °F
Wind: No wind

Location: Amman Airport

Current Time: Jul 31, 2014 at 10:39:55 PM

Latest Report: Jul 31, 2014 at 10:00 PM


Visibility: 3 mi

Pressure: 29.83 "Hg

Humidity: 57%

Dew point: 61 °F

Location of ZarqaLocation

Historic Weather in Zarqa — Graph

°F

Zarqa temperature yesterday

Maximum temperature yesterday: 90 °F (at 1:00 PM)
Minimum temperature yesterday: 72 °F (at 7:00 AM)
Average temperature yesterday: 82 °F

Past Weeks' High & Low Weather Summary

 TemperatureHumidityPressure
High91 °F (Jul 31, 3:00 PM)88% (Jul 21, 6:00 AM)30.01 "Hg (Jul 21, 6:00 AM)
Low64 °F (Jul 18, 5:00 AM)18% (Jul 24, 12:00 PM)29.80 "Hg (Jul 25, 4:00 PM)
Average77 °F47%29.88 "Hg
* Reported Jul 16 9:00 PM — Jul 31 9:00 PM, Zarqa, Weather by CustomWeather, © 2014

Note: Actual official high and low records may vary slightly from our data, if they occured in-between our weather recording intervals... More about our weather records

Advertising

Zarqa weather history for previous 24 hours

 ConditionsComfort  
Time TempWeatherWind HumidityBarometerVisibility
9:00 PM
Jul 31
79 °FHaze.7 mph54%29.83 "Hg3 mi
8:00 PM82 °FHaze.12 mph40%29.83 "Hg3 mi
7:00 PM84 °FHaze.16 mph40%29.83 "Hg3 mi
6:00 PM88 °FHaze.16 mph31%29.80 "Hg3 mi
5:00 PM90 °FClear.15 mph29%29.83 "Hg4 mi
4:00 PM90 °FClear.14 mph26%29.86 "Hg4 mi
3:00 PM91 °FClear.14 mph28%29.86 "Hg4 mi
2:00 PM90 °FClear.12 mph24%29.86 "Hg4 mi
1:00 PM88 °FClear.12 mph27%29.86 "Hg4 mi
12:00 PM86 °FHaze.9 mph29%29.86 "Hg3 mi
11:00 AM84 °FHaze.12 mph27%29.86 "Hg3 mi
10:00 AM81 °FHaze.9 mph30%29.86 "Hg3 mi
9:00 AM79 °FHaze.5 mph32%29.86 "Hg3 mi
8:00 AM72 °FHaze.No wind36%29.86 "Hg4 mi
7:00 AM70 °FHaze.No wind40%29.86 "Hg4 mi
6:00 AM70 °FHaze.No wind38%29.86 "Hg4 mi
5:00 AM75 °FHaze.No wind29%29.86 "Hg4 mi
4:00 AM75 °FHaze.No wind29%29.86 "Hg4 mi
3:00 AM75 °FHaze.5 mph29%29.86 "Hg4 mi
2:00 AM75 °FHaze.7 mph34%29.83 "Hg4 mi
1:00 AM77 °FHaze.2 mph34%29.83 "Hg4 mi
12:00 AM79 °FHaze.7 mph30%29.83 "Hg4 mi
11:00 PM
Jul 30
81 °FHaze.7 mph32%29.83 "Hg4 mi
10:00 PM81 °FHaze.7 mph32%29.83 "Hg4 mi
Weather by CustomWeather, © 2014

See weather overviewHow to use our weather pages